| time (UTC) | temp F | wind direction | speed MPH | gust MPH | rain 1hr in | rain 24hr in | rain mn in | humidity % | barometer mb |
| 20260906043342 | 59 | 22 | 0.0 | 0.0 | 0.00 | 0.00 | 0.00 | 91 | 1023.7 |
| 20260906042342 | 60 | 22 | 0.0 | 0.0 | 0.00 | 0.00 | 0.00 | 91 | 1023.6 |
| 20260906041843 | 60 | 22 | 0.0 | 0.0 | 0.00 | 0.00 | 0.00 | 91 | 1023.5 |
| 20260906041341 | 60 | 22 | 0.0 | 0.0 | 0.00 | 0.00 | 0.00 | 91 | 1023.6 |
| 20260906040842 | 60 | 22 | 0.0 | 0.0 | 0.00 | 0.00 | 0.00 | 91 | 1023.6 |
| 20260906040341 | 60 | 22 | 0.0 | 0.0 | 0.00 | 0.00 | 0.00 | 91 | 1023.5 |
| 20260906035841 | 60 | 22 | 0.0 | 0.0 | 0.00 | 0.00 | 0.00 | 90 | 1023.4 |
| 20260906035340 | 60 | 22 | 0.0 | 0.0 | 0.00 | 0.00 | 0.00 | 90 | 1023.3 |
| 20260906034841 | 60 | 22 | 0.0 | 0.0 | 0.00 | 0.00 | 0.00 | 90 | 1023.4 |
| 20260906034339 | 60 | 22 | 0.0 | 0.0 | 0.00 | 0.00 | 0.00 | 90 | 1023.3 |
| 20260906033840 | 60 | 22 | 0.0 | 0.0 | 0.00 | 0.00 | 0.00 | 90 | 1023.2 |
| 20260906033339 | 60 | 22 | 0.0 | 0.0 | 0.00 | 0.00 | 0.00 | 90 | 1023.3 |
| 20260906032840 | 60 | 22 | 0.0 | 0.0 | 0.00 | 0.00 | 0.00 | 90 | 1023.2 |
| 20260906032338 | 60 | 22 | 0.0 | 0.0 | 0.00 | 0.00 | 0.00 | 91 | 1023.3 |
| 20260906031839 | 61 | 22 | 0.0 | 0.0 | 0.00 | 0.00 | 0.00 | 91 | 1023.2 |
| 20260906031338 | 61 | 22 | 0.0 | 0.0 | 0.00 | 0.00 | 0.00 | 91 | 1023.0 |
| 20260906030839 | 61 | 22 | 0.0 | 0.0 | 0.00 | 0.00 | 0.00 | 91 | 1023.1 |
| 20260906030337 | 61 | 22 | 0.0 | 1.0 | 0.00 | 0.00 | 0.00 | 90 | 1023.1 |
| 20260906025838 | 61 | 22 | 1.0 | 1.0 | 0.00 | 0.00 | 0.00 | 90 | 1023.1 |
| 20260906025337 | 61 | 22 | 1.0 | 1.0 | 0.00 | 0.00 | 0.00 | 90 | 1022.9 |
| 20260906024837 | 61 | 22 | 0.0 | 0.0 | 0.00 | 0.00 | 0.00 | 90 | 1023.1 |
| 20260906024336 | 62 | 22 | 0.0 | 0.0 | 0.00 | 0.00 | 0.00 | 90 | 1022.9 |
| 20260906023837 | 62 | 22 | 0.0 | 0.0 | 0.00 | 0.00 | 0.00 | 90 | 1022.9 |
| 20260906023335 | 62 | 22 | 0.0 | 0.0 | 0.00 | 0.00 | 0.00 | 90 | 1023.0 |
| 20260906022836 | 62 | 0 | 0.0 | 1.0 | 0.00 | 0.00 | 0.00 | 90 | 1022.8 |
| 20260906022335 | 62 | 22 | 0.0 | 0.0 | 0.00 | 0.00 | 0.00 | 89 | 1022.9 |
| 20260906021836 | 62 | 22 | 0.0 | 0.0 | 0.00 | 0.00 | 0.00 | 89 | 1022.8 |
| 20260906021334 | 62 | 22 | 0.0 | 0.0 | 0.00 | 0.00 | 0.00 | 89 | 1022.9 |
| 20260906020835 | 62 | 22 | 0.0 | 0.0 | 0.00 | 0.00 | 0.00 | 89 | 1022.9 |
| 20260906020334 | 62 | 22 | 0.0 | 0.0 | 0.00 | 0.00 | 0.00 | 90 | 1022.8 |
| 20260906015838 | 62 | 22 | 0.0 | 0.0 | 0.00 | 0.00 | 0.00 | 90 | 1022.9 |
| 20260906015333 | 62 | 22 | 0.0 | 0.0 | 0.00 | 0.00 | 0.00 | 89 | 1022.9 |
| 20260906014835 | 62 | 22 | 0.0 | 0.0 | 0.00 | 0.00 | 0.00 | 89 | 1022.6 |
| 20260906014333 | 63 | 22 | 0.0 | 0.0 | 0.00 | 0.00 | 0.00 | 89 | 1022.6 |
| 20260906013833 | 63 | 22 | 0.0 | 0.0 | 0.00 | 0.00 | 0.00 | 89 | 1022.6 |
| 20260906013332 | 63 | 0 | 0.0 | 0.0 | 0.00 | 0.00 | 0.00 | 89 | 1022.5 |
| 20260906012833 | 63 | 22 | 0.0 | 0.0 | 0.00 | 0.00 | 0.00 | 89 | 1022.5 |
| 20260906012331 | 64 | 22 | 0.0 | 0.0 | 0.00 | 0.00 | 0.00 | 89 | 1022.5 |
| 20260906011331 | 64 | 135 | 0.0 | 0.0 | 0.00 | 0.00 | 0.00 | 89 | 1022.6 |
| 20260906010330 | 64 | 22 | 0.0 | 0.0 | 0.00 | 0.00 | 0.00 | 89 | 1022.7 |
| 20260906005831 | 64 | 22 | 0.0 | 0.0 | 0.00 | 0.00 | 0.00 | 89 | 1022.7 |
| 20260906005330 | 64 | 22 | 0.0 | 0.0 | 0.00 | 0.00 | 0.00 | 89 | 1022.5 |
| 20260906004329 | 64 | 22 | 0.0 | 0.0 | 0.00 | 0.00 | 0.00 | 89 | 1022.3 |
| 20260906003830 | 64 | 22 | 0.0 | 0.0 | 0.00 | 0.00 | 0.00 | 89 | 1022.3 |
| 20260906003329 | 64 | 22 | 0.0 | 0.0 | 0.00 | 0.00 | 0.00 | 89 | 1022.3 |
| 20260906002328 | 64 | 22 | 0.0 | 0.0 | 0.00 | 0.00 | 0.00 | 89 | 1022.2 |
| 20260906001327 | 64 | 67 | 0.0 | 0.0 | 0.00 | 0.00 | 0.00 | 89 | 1022.2 |
| 20260906000831 | 64 | 90 | 0.0 | 0.0 | 0.00 | 0.00 | 0.00 | 89 | 1022.2 |
| 20260906000327 | 64 | 315 | 0.0 | 0.0 | 0.00 | 0.00 | 0.00 | 89 | 1022.2 |
| 20260905235326 | 64 | 22 | 1.0 | 1.0 | 0.00 | 0.00 | 0.00 | 89 | 1022.0 |
| 20260905234827 | 64 | 0 | 0.0 | 0.0 | 0.00 | 0.00 | 0.00 | 89 | 1021.9 |
| 20260905234326 | 64 | 22 | 0.0 | 0.0 | 0.00 | 0.00 | 0.00 | 89 | 1022.0 |
| 20260905233827 | 64 | 22 | 0.0 | 0.0 | 0.00 | 0.00 | 0.00 | 89 | 1022.1 |
| 20260905233325 | 64 | 22 | 0.0 | 1.0 | 0.00 | 0.00 | 0.00 | 89 | 1021.9 |
| 20260905232828 | 64 | 22 | 1.0 | 1.0 | 0.00 | 0.00 | 0.00 | 89 | 1021.9 |
| 20260905232325 | 64 | 292 | 0.0 | 0.0 | 0.00 | 0.00 | 0.00 | 88 | 1022.0 |
| 20260905231324 | 64 | 22 | 0.0 | 0.0 | 0.00 | 0.00 | 0.00 | 88 | 1022.0 |
| 20260905230324 | 64 | 22 | 0.0 | 0.0 | 0.00 | 0.00 | 0.00 | 88 | 1021.9 |
| 20260905225826 | 64 | 22 | 0.0 | 0.0 | 0.00 | 0.00 | 0.00 | 87 | 1021.9 |
| 20260905225323 | 64 | 0 | 0.0 | 0.0 | 0.00 | 0.00 | 0.00 | 87 | 1021.9 |
| 20260905224322 | 64 | 0 | 0.0 | 0.0 | 0.00 | 0.00 | 0.00 | 87 | 1021.9 |
| 20260905223823 | 65 | 0 | 0.0 | 0.0 | 0.00 | 0.00 | 0.00 | 87 | 1021.9 |
| 20260905223322 | 65 | 0 | 0.0 | 0.0 | 0.00 | 0.00 | 0.00 | 87 | 1021.8 |
| 20260905222823 | 65 | 45 | 0.0 | 0.0 | 0.00 | 0.00 | 0.00 | 87 | 1021.8 |
| 20260905222321 | 65 | 22 | 0.0 | 1.0 | 0.00 | 0.00 | 0.00 | 87 | 1021.8 |
| 20260905221321 | 65 | 0 | 0.0 | 0.0 | 0.00 | 0.00 | 0.00 | 86 | 1021.7 |
| 20260905220821 | 65 | 0 | 0.0 | 1.0 | 0.00 | 0.00 | 0.00 | 86 | 1021.6 |
| 20260905220320 | 65 | 22 | 1.0 | 1.0 | 0.00 | 0.00 | 0.00 | 86 | 1021.6 |
| 20260905215821 | 65 | 22 | 0.0 | 0.0 | 0.00 | 0.00 | 0.00 | 86 | 1021.6 |
| 20260905215319 | 66 | 22 | 0.0 | 0.0 | 0.00 | 0.00 | 0.00 | 85 | 1021.6 |
| 20260905214820 | 66 | 22 | 0.0 | 0.0 | 0.00 | 0.00 | 0.00 | 85 | 1021.6 |
| 20260905214319 | 66 | 0 | 0.0 | 0.0 | 0.00 | 0.00 | 0.00 | 85 | 1021.5 |
| 20260905213822 | 66 | 0 | 0.0 | 1.0 | 0.00 | 0.00 | 0.00 | 85 | 1021.5 |
| 20260905213318 | 66 | 22 | 1.0 | 1.0 | 0.00 | 0.00 | 0.00 | 85 | 1021.4 |
| 20260905212819 | 66 | 67 | 0.0 | 0.0 | 0.00 | 0.00 | 0.00 | 85 | 1021.4 |
| 20260905212318 | 66 | 22 | 0.0 | 0.0 | 0.00 | 0.00 | 0.00 | 85 | 1021.3 |
| 20260905211819 | 66 | 67 | 0.0 | 0.0 | 0.00 | 0.00 | 0.00 | 84 | 1021.4 |
| 20260905211317 | 66 | 0 | 0.0 | 0.0 | 0.00 | 0.00 | 0.00 | 84 | 1021.3 |
| 20260905210317 | 67 | 22 | 0.0 | 0.0 | 0.00 | 0.00 | 0.00 | 84 | 1021.4 |
| 20260905205818 | 67 | 22 | 0.0 | 0.0 | 0.00 | 0.00 | 0.00 | 84 | 1021.3 |
| 20260905205316 | 67 | 22 | 0.0 | 0.0 | 0.00 | 0.00 | 0.00 | 83 | 1021.2 |
| 20260905204817 | 67 | 22 | 0.0 | 0.0 | 0.00 | 0.00 | 0.00 | 83 | 1021.3 |
| 20260905204316 | 67 | 22 | 0.0 | 0.0 | 0.00 | 0.00 | 0.00 | 83 | 1021.2 |
| 20260905203816 | 67 | 22 | 0.0 | 0.0 | 0.00 | 0.00 | 0.00 | 83 | 1021.1 |
| 20260905203114 | 67 | 0 | 0.0 | 0.0 | 0.00 | 0.00 | 0.00 | 83 | 1020.9 |
| 20260905202113 | 67 | 22 | 1.0 | 1.0 | 0.00 | 0.00 | 0.00 | 83 | 1020.9 |
| 20260905201614 | 68 | 0 | 0.0 | 0.0 | 0.00 | 0.00 | 0.00 | 83 | 1020.9 |
| 20260905201113 | 68 | 0 | 0.0 | 0.0 | 0.00 | 0.00 | 0.00 | 83 | 1020.8 |
| 20260905200112 | 68 | 45 | 2.0 | 3.0 | 0.00 | 0.00 | 0.00 | 83 | 1020.8 |
| 20260905195112 | 68 | 22 | 1.0 | 1.0 | 0.00 | 0.00 | 0.00 | 83 | 1020.6 |
| 20260905194614 | 68 | 22 | 0.0 | 0.0 | 0.00 | 0.00 | 0.00 | 83 | 1020.5 |
| 20260905193609 | 68 | 0 | 0.0 | 0.0 | 0.00 | 0.00 | 0.00 | 83 | 1020.6 |
| 20260905193113 | 68 | 337 | 0.0 | 0.0 | 0.00 | 0.00 | 0.00 | 83 | 1020.5 |
| 20260905192609 | 68 | 22 | 0.0 | 1.0 | 0.00 | 0.00 | 0.00 | 83 | 1020.6 |
| 20260905191207 | 68 | 0 | 0.0 | 1.0 | 0.00 | 0.00 | 0.00 | 82 | 1020.4 |
| 20260905190709 | 68 | 22 | 0.0 | 2.0 | 0.00 | 0.00 | 0.00 | 82 | 1020.5 |
| 20260905190206 | 69 | 22 | 2.0 | 2.0 | 0.00 | 0.00 | 0.00 | 82 | 1020.4 |
| 20260905185826 | 69 | 0 | 1.0 | 1.0 | 0.00 | 0.00 | 0.00 | 81 | 1020.4 |
| 20260905185709 | 69 | 0 | 1.0 | 1.0 | 0.00 | 0.00 | 0.00 | 81 | 1020.4 |
| 20260905185206 | 69 | 0 | 0.0 | 0.0 | 0.00 | 0.00 | 0.00 | 81 | 1020.3 |
| 20260905184205 | 69 | 225 | 0.0 | 0.0 | 0.00 | 0.00 | 0.00 | 80 | 1020.3 |
| 20260905183706 | 69 | 0 | 0.0 | 2.0 | 0.00 | 0.00 | 0.00 | 80 | 1020.1 |
| 20260905183204 | 69 | 22 | 2.0 | 2.0 | 0.00 | 0.00 | 0.00 | 79 | 1020.2 |
| 20260905182706 | 69 | 315 | 0.0 | 1.0 | 0.00 | 0.00 | 0.00 | 78 | 1019.9 |
| 20260905182204 | 69 | 315 | 0.0 | 1.0 | 0.00 | 0.00 | 0.00 | 78 | 1019.8 |
| 20260905181203 | 70 | 45 | 0.0 | 1.0 | 0.00 | 0.00 | 0.00 | 75 | 1019.7 |
| 20260905180203 | 70 | 22 | 1.0 | 1.0 | 0.00 | 0.00 | 0.00 | 74 | 1019.4 |
| 20260905175203 | 70 | 90 | 0.0 | 2.0 | 0.00 | 0.00 | 0.00 | 74 | 1019.3 |
| 20260905174703 | 70 | 0 | 0.0 | 0.0 | 0.00 | 0.00 | 0.00 | 73 | 1019.2 |
| 20260905174202 | 70 | 22 | 0.0 | 1.0 | 0.00 | 0.00 | 0.00 | 73 | 1019.1 |
| 20260905173702 | 71 | 337 | 0.0 | 1.0 | 0.00 | 0.00 | 0.00 | 72 | 1019.1 |
| 20260905173201 | 71 | 0 | 1.0 | 1.0 | 0.00 | 0.00 | 0.00 | 72 | 1019.1 |
| 20260905172200 | 72 | 22 | 0.0 | 0.0 | 0.00 | 0.00 | 0.00 | 72 | 1019.0 |
| 20260905171701 | 72 | 67 | 0.0 | 2.0 | 0.00 | 0.00 | 0.00 | 71 | 1018.9 |
| 20260905171200 | 72 | 45 | 1.0 | 2.0 | 0.00 | 0.00 | 0.00 | 70 | 1019.0 |
| 20260905170704 | 72 | 0 | 2.0 | 2.0 | 0.00 | 0.00 | 0.00 | 70 | 1018.9 |
| 20260905170159 | 72 | 45 | 0.0 | 2.0 | 0.00 | 0.00 | 0.00 | 70 | 1019.1 |
| 20260905165159 | 73 | 45 | 3.0 | 4.0 | 0.00 | 0.00 | 0.00 | 68 | 1018.9 |
| 20260905164158 | 73 | 45 | 2.0 | 2.0 | 0.00 | 0.00 | 0.00 | 65 | 1018.7 |
| 20260905163056 | 74 | 157 | 0.0 | 0.0 | 0.00 | 0.00 | 0.00 | 64 | 1018.5 |
| 20260905162557 | 74 | 337 | 0.0 | 2.0 | 0.00 | 0.00 | 0.00 | 63 | 1018.5 |
| 20260905162056 | 74 | 45 | 2.0 | 2.0 | 0.00 | 0.00 | 0.00 | 63 | 1018.7 |
| 20260905161651 | 75 | 22 | 2.0 | 2.0 | 0.00 | 0.00 | 0.00 | 61 | 1018.7 |
| 20260905161556 | 75 | 22 | 2.0 | 2.0 | 0.00 | 0.00 | 0.00 | 61 | 1018.7 |
| 20260905161055 | 75 | 337 | 1.0 | 1.0 | 0.00 | 0.00 | 0.00 | 61 | 1018.7 |
| 20260905160054 | 75 | 45 | 0.0 | 2.0 | 0.00 | 0.00 | 0.00 | 60 | 1018.5 |
| 20260905155555 | 75 | 112 | 2.0 | 2.0 | 0.00 | 0.00 | 0.00 | 59 | 1018.5 |
| 20260905155054 | 76 | 315 | 2.0 | 3.0 | 0.00 | 0.00 | 0.00 | 59 | 1018.3 |
| 20260905154555 | 76 | 22 | 0.0 | 2.0 | 0.00 | 0.00 | 0.00 | 58 | 1018.3 |
| 20260905154053 | 77 | 337 | 0.0 | 2.0 | 0.00 | 0.00 | 0.00 | 57 | 1018.3 |
| 20260905153053 | 78 | 225 | 0.0 | 4.0 | 0.00 | 0.00 | 0.00 | 56 | 1018.2 |
| 20260905152554 | 78 | 112 | 0.0 | 2.0 | 0.00 | 0.00 | 0.00 | 56 | 1018.1 |
| 20260905152052 | 78 | 45 | 2.0 | 3.0 | 0.00 | 0.00 | 0.00 | 55 | 1018.0 |
| 20260905151553 | 79 | 0 | 0.0 | 6.0 | 0.00 | 0.00 | 0.00 | 55 | 1017.9 |
| 20260905151052 | 79 | 22 | 1.0 | 2.0 | 0.00 | 0.00 | 0.00 | 55 | 1017.9 |
| 20260905145850 | 79 | 22 | 4.0 | 6.0 | 0.00 | 0.00 | 0.00 | 53 | 1017.9 |
| 20260905145352 | 79 | 337 | 2.0 | 2.0 | 0.00 | 0.00 | 0.00 | 52 | 1017.7 |
| 20260905144849 | 79 | 67 | 2.0 | 2.0 | 0.00 | 0.00 | 0.00 | 52 | 1017.7 |
| 20260905144353 | 79 | 45 | 1.0 | 2.0 | 0.00 | 0.00 | 0.00 | 51 | 1017.7 |
| 20260905143848 | 80 | 90 | 2.0 | 2.0 | 0.00 | 0.00 | 0.00 | 50 | 1017.6 |
| 20260905143349 | 81 | 90 | 2.0 | 4.0 | 0.00 | 0.00 | 0.00 | 49 | 1017.4 |
| 20260905142848 | 82 | 22 | 4.0 | 4.0 | 0.00 | 0.00 | 0.00 | 49 | 1017.4 |
| 20260905141847 | 83 | 22 | 2.0 | 2.0 | 0.00 | 0.00 | 0.00 | 49 | 1017.3 |
| 20260905141348 | 82 | 22 | 2.0 | 3.0 | 0.00 | 0.00 | 0.00 | 49 | 1017.3 |
| 20260905140847 | 82 | 67 | 3.0 | 3.0 | 0.00 | 0.00 | 0.00 | 49 | 1017.3 |
| 20260905140546 | 82 | 67 | 2.0 | 2.0 | 0.00 | 0.00 | 0.00 | 49 | 1017.3 |
| 20260905140347 | 82 | 67 | 2.0 | 2.0 | 0.00 | 0.00 | 0.00 | 49 | 1017.3 |
| 20260905135846 | 82 | 112 | 2.0 | 2.0 | 0.00 | 0.00 | 0.00 | 49 | 1017.2 |
| 20260905134846 | 83 | 0 | 0.0 | 3.0 | 0.00 | 0.00 | 0.00 | 49 | 1017.3 |
| 20260905134346 | 84 | 0 | 0.0 | 3.0 | 0.00 | 0.00 | 0.00 | 49 | 1017.2 |
| 20260905133745 | 85 | 22 | 3.0 | 3.0 | 0.00 | 0.00 | 0.00 | 49 | 1017.1 |
| 20260905133243 | 85 | 247 | 1.0 | 4.0 | 0.00 | 0.00 | 0.00 | 49 | 1017.0 |
| 20260905132744 | 85 | 45 | 4.0 | 4.0 | 0.00 | 0.00 | 0.00 | 48 | 1016.9 |
| 20260905132243 | 85 | 45 | 4.0 | 4.0 | 0.00 | 0.00 | 0.00 | 48 | 1017.0 |
| 20260905131817 | 87 | 270 | 0.0 | 2.0 | 0.00 | 0.00 | 0.00 | 48 | 1016.8 |
| 20260905131744 | 87 | 270 | 0.0 | 2.0 | 0.00 | 0.00 | 0.00 | 48 | 1016.8 |
| 20260905131242 | 87 | 0 | 2.0 | 2.0 | 0.00 | 0.00 | 0.00 | 47 | 1016.8 |
| 20260905130743 | 88 | 292 | 2.0 | 3.0 | 0.00 | 0.00 | 0.00 | 47 | 1016.6 |
| 20260905130241 | 88 | 337 | 2.0 | 2.0 | 0.00 | 0.00 | 0.00 | 47 | 1016.6 |
| 20260905125742 | 88 | 337 | 2.0 | 4.0 | 0.00 | 0.00 | 0.00 | 49 | 1016.6 |
| 20260905125241 | 88 | 45 | 4.0 | 58.0 | 0.00 | 0.00 | 0.00 | 49 | 1016.5 |
| 20260905124240 | 87 | 270 | 0.0 | 2.0 | 0.00 | 0.00 | 0.00 | 50 | 1016.4 |
| 20260905123741 | 87 | 202 | 2.0 | 2.0 | 0.00 | 0.00 | 0.00 | 50 | 1016.5 |
| 20260905123240 | 87 | 45 | 1.0 | 1.0 | 0.00 | 0.00 | 0.00 | 50 | 1016.6 |
| 20260905122741 | 87 | 45 | 1.0 | 1.0 | 0.00 | 0.00 | 0.00 | 49 | 1016.5 |
| 20260905122239 | 87 | 45 | 1.0 | 1.0 | 0.00 | 0.00 | 0.00 | 48 | 1016.6 |
| 20260905121239 | 88 | 337 | 2.0 | 2.0 | 0.00 | 0.00 | 0.00 | 50 | 1016.4 |
| 20260905120739 | 88 | 337 | 2.0 | 2.0 | 0.00 | 0.00 | 0.00 | 49 | 1016.5 |
| 20260905120238 | 89 | 225 | 0.0 | 0.0 | 0.00 | 0.00 | 0.00 | 47 | 1016.5 |
| 20260905115739 | 88 | 225 | 0.0 | 0.0 | 0.00 | 0.00 | 0.00 | 45 | 1016.4 |
| 20260905115238 | 88 | 225 | 0.0 | 0.0 | 0.00 | 0.00 | 0.00 | 45 | 1016.5 |
| 20260905114237 | 88 | 0 | 1.0 | 1.0 | 0.00 | 0.00 | 0.00 | 45 | 1016.8 |
| 20260905113739 | 88 | 45 | 0.0 | 1.0 | 0.00 | 0.00 | 0.00 | 46 | 1016.7 |
| 20260905113236 | 88 | 202 | 1.0 | 1.0 | 0.00 | 0.00 | 0.00 | 46 | 1016.6 |
| 20260905112236 | 88 | 112 | 6.0 | 6.0 | 0.00 | 0.00 | 0.00 | 44 | 1016.7 |
| 20260905111737 | 88 | 180 | 3.0 | 3.0 | 0.00 | 0.00 | 0.00 | 47 | 1016.7 |
| 20260905111235 | 88 | 45 | 1.0 | 1.0 | 0.00 | 0.00 | 0.00 | 47 | 1016.5 |
| 20260905110235 | 87 | 0 | 0.0 | 0.0 | 0.00 | 0.00 | 0.00 | 48 | 1016.6 |
| 20260905105736 | 87 | 0 | 0.0 | 1.0 | 0.00 | 0.00 | 0.00 | 49 | 1016.7 |
| 20260905105234 | 87 | 202 | 1.0 | 1.0 | 0.00 | 0.00 | 0.00 | 48 | 1016.7 |
| 20260905104234 | 87 | 67 | 0.0 | 1.0 | 0.00 | 0.00 | 0.00 | 50 | 1016.8 |
| 20260905103734 | 86 | 0 | 1.0 | 1.0 | 0.00 | 0.00 | 0.00 | 50 | 1016.8 |
| 20260905103233 | 85 | 22 | 0.0 | 0.0 | 0.00 | 0.00 | 0.00 | 51 | 1016.8 |
| 20260905102734 | 85 | 247 | 0.0 | 0.0 | 0.00 | 0.00 | 0.00 | 51 | 1016.9 |
| 20260905102232 | 85 | 225 | 0.0 | 0.0 | 0.00 | 0.00 | 0.00 | 52 | 1016.8 |
| 20260905101733 | 84 | 337 | 0.0 | 3.0 | 0.00 | 0.00 | 0.00 | 52 | 1016.8 |
| 20260905101232 | 84 | 22 | 3.0 | 3.0 | 0.00 | 0.00 | 0.00 | 51 | 1016.9 |
| 20260905100735 | 84 | 0 | 2.0 | 2.0 | 0.00 | 0.00 | 0.00 | 52 | 1016.8 |
| 20260905100231 | 84 | 112 | 0.0 | 0.0 | 0.00 | 0.00 | 0.00 | 53 | 1016.7 |
| 20260905095732 | 84 | 157 | 0.0 | 1.0 | 0.00 | 0.00 | 0.00 | 54 | 1016.7 |
| 20260905095231 | 83 | 112 | 1.0 | 1.0 | 0.00 | 0.00 | 0.00 | 55 | 1016.7 |
| 20260905094732 | 83 | 337 | 0.0 | 0.0 | 0.00 | 0.00 | 0.00 | 55 | 1016.7 |
| 20260905094230 | 82 | 0 | 0.0 | 1.0 | 0.00 | 0.00 | 0.00 | 55 | 1016.9 |
| 20260905093732 | 82 | 157 | 0.0 | 1.0 | 0.00 | 0.00 | 0.00 | 56 | 1016.9 |
| 20260905093230 | 81 | 22 | 0.0 | 0.0 | 0.00 | 0.00 | 0.00 | 57 | 1016.9 |
| 20260905092730 | 81 | 135 | 0.0 | 1.0 | 0.00 | 0.00 | 0.00 | 58 | 1017.0 |
| 20260905091827 | 80 | 157 | 0.0 | 0.0 | 0.00 | 0.00 | 0.00 | 58 | 1017.0 |
| 20260905090945 | 81 | 112 | 0.0 | 0.0 | 0.00 | 0.00 | 0.00 | 58 | 1016.9 |
| 20260905090827 | 81 | 112 | 0.0 | 0.0 | 0.00 | 0.00 | 0.00 | 58 | 1016.9 |
| 20260905090329 | 81 | 112 | 0.0 | 1.0 | 0.00 | 0.00 | 0.00 | 58 | 1016.8 |
| 20260905085826 | 81 | 315 | 1.0 | 1.0 | 0.00 | 0.00 | 0.00 | 58 | 1016.8 |
| 20260905085327 | 81 | 292 | 0.0 | 0.0 | 0.00 | 0.00 | 0.00 | 57 | 1016.8 |
| 20260905084826 | 81 | 135 | 0.0 | 1.0 | 0.00 | 0.00 | 0.00 | 57 | 1016.8 |
| 20260905083825 | 81 | 315 | 3.0 | 3.0 | 0.00 | 0.00 | 0.00 | 58 | 1016.8 |
| 20260905083326 | 81 | 292 | 1.0 | 1.0 | 0.00 | 0.00 | 0.00 | 60 | 1016.6 |
| 20260905082825 | 80 | 157 | 0.0 | 1.0 | 0.00 | 0.00 | 0.00 | 61 | 1016.6 |
| 20260905082325 | 80 | 112 | 1.0 | 1.0 | 0.00 | 0.00 | 0.00 | 63 | 1016.7 |
| 20260905081824 | 79 | 157 | 0.0 | 0.0 | 0.00 | 0.00 | 0.00 | 64 | 1016.7 |
| 20260905081325 | 78 | 0 | 0.0 | 1.0 | 0.00 | 0.00 | 0.00 | 66 | 1016.7 |
| 20260905080823 | 78 | 135 | 0.0 | 0.0 | 0.00 | 0.00 | 0.00 | 67 | 1016.8 |
| 20260905080324 | 78 | 67 | 0.0 | 2.0 | 0.00 | 0.00 | 0.00 | 68 | 1016.7 |
| 20260905075521 | 77 | 22 | 0.0 | 2.0 | 0.00 | 0.00 | 0.00 | 71 | 1016.6 |
| 20260905075022 | 76 | 22 | 0.0 | 1.0 | 0.00 | 0.00 | 0.00 | 72 | 1016.7 |
| 20260905074521 | 75 | 180 | 0.0 | 0.0 | 0.00 | 0.00 | 0.00 | 72 | 1016.6 |
| 20260905074022 | 75 | 112 | 0.0 | 1.0 | 0.00 | 0.00 | 0.00 | 73 | 1016.6 |
| 20260905073520 | 74 | 225 | 1.0 | 1.0 | 0.00 | 0.00 | 0.00 | 74 | 1016.5 |
| 20260905073021 | 73 | 180 | 0.0 | 1.0 | 0.00 | 0.00 | 0.00 | 75 | 1016.4 |
| 20260905072520 | 73 | 135 | 1.0 | 1.0 | 0.00 | 0.00 | 0.00 | 75 | 1016.5 |
| 20260905072020 | 72 | 135 | 0.0 | 0.0 | 0.00 | 0.00 | 0.00 | 76 | 1016.4 |
| 20260905071519 | 72 | 157 | 0.0 | 0.0 | 0.00 | 0.00 | 0.00 | 76 | 1016.4 |
| 20260905071020 | 72 | 45 | 0.0 | 1.0 | 0.00 | 0.00 | 0.00 | 76 | 1016.4 |
| 20260905070519 | 72 | 22 | 0.0 | 0.0 | 0.00 | 0.00 | 0.00 | 77 | 1016.2 |
| 20260905070019 | 72 | 135 | 0.0 | 0.0 | 0.00 | 0.00 | 0.00 | 77 | 1016.2 |
| 20260905065518 | 71 | 45 | 0.0 | 1.0 | 0.00 | 0.00 | 0.00 | 78 | 1016.2 |
| 20260905065242 | 71 | 67 | 0.0 | 1.0 | 0.00 | 0.00 | 0.00 | 79 | 1016.2 |
| 20260905065019 | 71 | 67 | 0.0 | 1.0 | 0.00 | 0.00 | 0.00 | 79 | 1016.2 |
| 20260905064517 | 71 | 22 | 0.0 | 1.0 | 0.00 | 0.00 | 0.00 | 79 | 1016.1 |
| 20260905063517 | 70 | 112 | 0.0 | 0.0 | 0.00 | 0.00 | 0.00 | 81 | 1016.0 |
| 20260905063018 | 69 | 45 | 0.0 | 1.0 | 0.00 | 0.00 | 0.00 | 81 | 1016.0 |
| 20260905062516 | 69 | 22 | 0.0 | 1.0 | 0.00 | 0.00 | 0.00 | 82 | 1016.0 |
| 20260905061516 | 68 | 225 | 0.0 | 1.0 | 0.00 | 0.00 | 0.00 | 84 | 1016.0 |
| 20260905061016 | 67 | 135 | 1.0 | 1.0 | 0.00 | 0.00 | 0.00 | 86 | 1015.9 |
| 20260905060515 | 66 | 270 | 0.0 | 0.0 | 0.00 | 0.00 | 0.00 | 86 | 1015.9 |
| 20260905060016 | 66 | 0 | 0.0 | 0.0 | 0.00 | 0.00 | 0.00 | 87 | 1016.1 |
| 20260905055514 | 65 | 22 | 0.0 | 0.0 | 0.00 | 0.00 | 0.00 | 87 | 1016.1 |
| 20260905055015 | 64 | 45 | 0.0 | 0.0 | 0.00 | 0.00 | 0.00 | 88 | 1016.0 |
| 20260905054514 | 64 | 45 | 0.0 | 0.0 | 0.00 | 0.00 | 0.00 | 89 | 1016.0 |
| 20260905054016 | 63 | 45 | 0.0 | 2.0 | 0.00 | 0.00 | 0.00 | 89 | 1016.1 |
| 20260905053513 | 62 | 337 | 0.0 | 0.0 | 0.00 | 0.00 | 0.00 | 89 | 1016.1 |
| 20260905053014 | 62 | 337 | 0.0 | 0.0 | 0.00 | 0.00 | 0.00 | 89 | 1016.0 |
| 20260905052513 | 62 | 22 | 0.0 | 0.0 | 0.00 | 0.00 | 0.00 | 89 | 1016.0 |
| 20260905051512 | 61 | 22 | 0.0 | 0.0 | 0.00 | 0.00 | 0.00 | 89 | 1016.1 |
| 20260905050512 | 61 | 67 | 0.0 | 0.0 | 0.00 | 0.00 | 0.00 | 89 | 1015.9 |
| 20260905050013 | 61 | 67 | 0.0 | 0.0 | 0.00 | 0.00 | 0.00 | 89 | 1015.9 |
| 20260905045511 | 61 | 67 | 0.0 | 0.0 | 0.00 | 0.00 | 0.00 | 89 | 1015.8 |
| 20260905045013 | 61 | 22 | 0.0 | 0.0 | 0.00 | 0.00 | 0.00 | 89 | 1015.7 |
| 20260905044510 | 61 | 22 | 0.0 | 0.0 | 0.00 | 0.00 | 0.00 | 89 | 1015.7 |
| 20260905044011 | 61 | 22 | 0.0 | 0.0 | 0.00 | 0.00 | 0.00 | 88 | 1015.6 |
| 20260905043510 | 61 | 0 | 0.0 | 0.0 | 0.00 | 0.00 | 0.00 | 88 | 1015.7 |